Location: ???? ????
(41.4149°N, 22.8816°E)
Time: 11:56:36
(UTC+00:00)

Spot 4 Rocket - Pass Details

Date: 14 July 2020
Orbit: 777 x 781 km, 98.7° (Epoch: 09 August)

Event Time Altitude Azimuth Distance (km) Brightness Sun altitude
Rises 01:24:00 0° 16° (NNE) 3,271 8.5 -15.7°
Reaches altitude 10° 01:26:20 10° 19° (NNE) 2,339 7.6 -15.4°
Maximum altitude 01:31:29 69° 102° (ESE) 837 4.3 -14.8°
Enters shadow 01:36:00 13° 185° (S) 2,094 5.8 -14.2°
